Aérodrome :
LOGIN :

S'inscrire | Disclaimer

   EN    FR    IT 

 










Légende :    VFR   VFR Marginal   IFR   IFR Intensif   IFR Très Intensif
Visi : 
Plafond : 
>= 8 km
>= 3000ft
5 à 8 km
1000 à 3000 ft
1500m à 5 km
500 à 1000 ft
800 à 1500m
200 à 500 ft
< 800m
< 200 ft
Symboles :   Orages  Brouillard  Fortes neiges  Fortes précipitations  Vent > 20 kt
SIGMETs :   Divers  Orages  Givrage  Turbulence  Onde Orograph.  Cendres Volcan.







- Altitude de l'aérodrome : 87 ft
- Code IATA : FSC
- Voir les cartes d'approche


LFKF - Figari

DERNIER METAR :
  • 270400Z AUTO 02006KT CAVOK 14/07 Q1018 NOSIG

METARs EXPIRÉS :
  • 270330Z AUTO 03005KT CAVOK 13/07 Q1018 NOSIG
  • 270300Z AUTO 03004KT CAVOK 12/07 Q1017 NOSIG
  • 270230Z AUTO 05004KT CAVOK 08/05 Q1017 NOSIG
  • 270200Z AUTO 00000KT CAVOK 08/05 Q1017
  • 270130Z AUTO 00000KT CAVOK 09/06 Q1017

TAF TAF LFKF
Valide du 27 à 03h jusqu'au 28 à 03h UTC


270200Z 2703/2803 05003KT CAVOK
TEMPO 2709/2715 24010KT
Pas de NOTAMs connus pour ce terrain.



MET'MAP, la Météo Aéronautique d'un coup d'oeil ! - Copyright ORBIFLY Décembre 2007 - Disclaimer

ORBIFLY MET'MAP TEAM :

Programmation & Développement : Alexandra Zaïnal
Conception & Développement : Baudouin d'Aumeries
Co-Programmation & Développement : Marc-Olivier Méhu
Soutien technique & logistique : Manuel Goepfert

Contact : metmap@orbifly.com




SOURCES & CREDITS :

   NOAA